Weather Roundup
Issued by NWS

Home | Current Version | Previous Version | Text Only | Print | Product List | Glossary On
Versions: 1 2 3 4 5 6 7 8 9 10 11 12 13 14 15 16 17 18 19 20 21 22 23 24 25 26 27 28 29 30 31 32 33 34 35 36 37 38 39 40 41 42 43 44 45 46 47 48 49 50
000
NZUS93 KARX 292210
HRRWXR

CURRENT HOURLY OBSERVATIONS ACROSS
MUCH OF THE UPPER MISSISSIPPI VALLEY
NATIONAL WEATHER SERVICE LA CROSSE WI
500 PM CDT FRI AUG 29 2014


...SOUTHEAST MINNESOTA...


CITY           SKY/WX    TMP DP  RH WIND       PRES   REMARKS
ROCHESTER      PTSUNNY   78  69  73 S8        29.76F
ROCHESTER/MAYO FAIR      78  68  72 S10       29.75S
WINONA         RAIN      73  63  68 W22G45    29.76R
AUSTIN         PTSUNNY   81  70  69 SW8       29.76S
ALBERT LEA     PTSUNNY   79  70  73 W7        29.77R
DODGE CENTER   PTSUNNY   79  68  69 SW13      29.76S THUNDER
PRESTON        PTSUNNY   76  72  87 CALM      29.76F
OWATONNA       PTSUNNY   79  70  73 W7        29.76R
FARIBAULT      PTSUNNY   81  66  61 SW7       29.75S
$$

...ELSEWHERE IN MINNESOTA...


CITY           SKY/WX    TMP DP  RH WIND       PRES   REMARKS
MINNEAPOLIS    PTSUNNY   76  69  79 NW10      29.73S
INTNL FALLS    CLOUDY    69  63  81 SE5       29.75F
DULUTH         FOG       65  62  90 CALM      29.76R VSB 1
RED WING       PTSUNNY   79  68  69 SE10      29.71S
REDWOOD FALLS  RAIN      68  66  93 W10       29.77R FOG
MANKATO        CLOUDY    75  66  73 SW8       29.75S
WORTHINGTON    CLOUDY    70  68  94 W6        29.78F
FAIRMONT       CLOUDY    70  66  88 W7        29.77S
$$

...SOUTHWEST WISCONSIN...


CITY           SKY/WX    TMP DP  RH WIND       PRES   REMARKS
LA CROSSE      MOSUNNY   88  72  58 S14       29.73F HX  94
PRAIRIE DU CHI MOSUNNY   86  67  53 SE8       29.77R
BOSCOBEL       MOSUNNY   88  69  53 S12G21    29.78S HX  92
LONE ROCK      SUNNY     90  72  55 S13       29.79S HX  97
PLATTEVILLE    SUNNY     85  71  62 S14       29.83S HX  90
FORT MC COY    MOSUNNY   84  67  56 S10       29.77S
CAMP DOUGLAS   SUNNY     86  72  63 S13       29.78F HX  92
VIROQUA        MOCLDY    83  69  61 S13       29.79S
WIS DELLS      SUNNY     85  67  54 S12       29.80F
$$

...ELSEWHERE IN WISCONSIN...


CITY           SKY/WX    TMP DP  RH WIND       PRES   REMARKS
MILWAUKEE      CLOUDY    78  71  79 S16       29.87F
MADISON        PTSUNNY   84  69  60 S14       29.83S
GREEN BAY      SUNNY     83  72  69 S13       29.81F
EAU CLAIRE     PTSUNNY   73  69  87 CALM      29.75R
BLACK RVR FLS  MOCLDY    83  69  61 S6        29.76S
MEDFORD        MOSUNNY   76  70  81 SE8       29.81R
WAUSAU         MOSUNNY   79  70  74 S9        29.79F
WIS RAPIDS     MOSUNNY   84  70  62 SW8       29.80F
MARSHFIELD     SUNNY     81  71  71 S9        29.79F
RICE LAKE      CLOUDY    67  65  93 SE7       29.78S
$$

...NORTHEAST IOWA...


CITY           SKY/WX    TMP DP  RH WIND       PRES   REMARKS
WATERLOO       PTSUNNY   82  69  64 SW12      29.77R THUNDER
DUBUQUE        MOSUNNY   83  70  64 S14       29.83R
DECORAH        MOSUNNY   82  68  61 S12G20    29.75F
MASON CITY     PTSUNNY   79  70  74 SW9       29.79R
CHARLES CITY   MOSUNNY   81  72  74 W10       29.77S
OELWEIN        SUNNY     82  70  65 S13G22    29.78F
$$

...ELSEWHERE IN IOWA...


CITY           SKY/WX    TMP DP  RH WIND       PRES   REMARKS
DES MOINES     LGT RAIN  74  69  85 S8        29.80R
IOWA CITY      PTSUNNY   82  72  71 S7        29.81S
FORT DODGE     CLOUDY    75  68  78 SW5       29.79R
MARSHALLTOWN   RAIN      71  67  87 S15       29.80R FOG
CEDAR RAPIDS   PTSUNNY   81  71  71 S8        29.79S
$$

...NORTHERN ILLINOIS...


CITY           SKY/WX    TMP DP  RH WIND       PRES   REMARKS
CHICAGO-OHARE  MOSUNNY   86  69  56 S14       29.88F HX  90
DUPAGE         MOSUNNY   86  71  60 S12       29.88S HX  91
CHICAGO-MIDWAY PTSUNNY   87  72  60 S13       29.89S HX  93
MOLINE         MOSUNNY   86  72  62 SE8       29.82S HX  92
ROCKFORD       MOSUNNY   84  71  65 S15       29.87R
STERLING       MOSUNNY   86  72  62 S7        29.85S HX  92
PEORIA         PTSUNNY   84  71  65 S8        29.85F
$$

NOTE: "FAIR" INDICATES FEW OR NO CLOUDS BELOW 12,000 FEET WITH NO
SIGNIFICANT WEATHER AND/OR OBSTRUCTIONS TO VISIBILITY. WIND
SPEEDS ARE IN MILES-PER-HOUR.



USA.gov is the U.S. government's official web portal to all federal, state and local government web resources and services.